Location: Newark
(51.0500°N, 12.4500°E)
Time: 20:59:31
(UTC+00:00)

Explorer 7 - Pass Details

Date: 18 February 2020
Orbit: 485 x 679 km, 50.3° (Epoch: 28 March)

Event Time Altitude Azimuth Distance (km) Brightness Sun altitude
Rises 17:52:36 0° 283° (WNW) 2,727 12.0 -13.5°
Reaches altitude 10° 17:55:02 10° 274° (W) 1,797 10.9 -13.9°
Maximum altitude 17:58:42 34° 209° (SSW) 877 8.1 -14.4°
Enters shadow 18:01:56 12° 146° (SE) 1,608 8.9 -14.9°
